Temperature
13 13 13 13 13 13 13 14 14 14 14 14 14 14 15 15 15 15 15 15 15 15 16 16 16 16 16 16 16 16 16 16 16 16 16 16 16 16
13 13 13 13 13 13 13 13 13 14 13 14 14 14 14 14 15 15 15 15 15 15 15 15 16 16 16 16 16 16 16 16 16 16 16 16 16 16
13 13 13 13 13 13 13 13 13 13 13 13 14 14 14 14 14 14 14 15 15 15 15 15 15 15 15 16 16 16 16 16 16 16 16 16 16 16
13 13 13 12 13 13 13 13 13 13 13 13 13 13 14 14 14 14 14 14 14 15 15 15 15 15 15 15 15 15 15 15 16 16 16 16 16 16
13 13 13 13 13 12 12 13 13 13 13 13 13 13 13 13 13 13 14 14 14 14 14 14 14 15 15 15 15 15 15 15 15 15 15 15 16 16
13 13 13 13 13 13 13 12 12 13 13 13 13 13 13 13 13 13 13 13 14 14 14 14 14 14 14 14 14 15 15 15 15 15 15 15 15 15
13 13 13 13 13 13 13 12 12 12 12 12 12 12 13 13 13 13 13 13 13 13 14 14 14 14 14 14 14 14 14 14 14 14 14 15 15 15
13 13 13 13 13 13 12 12 12 12 12 12 12 12 12 12 12 12 12 13 13 13 13 14 14 14 14 14 14 14 14 14 14 14 14 14 14 14
13 13 13 13 13 13 12 12 12 12 12 12 12 12 12 12 12 12 12 12 12 13 13 13 13 13 14 14 14 14 14 14 14 14 14 14 14 14
13 13 13 13 13 13 12 12 12 12 12 12 12 12 12 12 12 12 12 12 12 12 12 12 13 13 13 13 13 13 13 13 13 13 13 13 13 13
13 13 13 13 13 13 13 12 12 12 12 12 12 12 12 12 12 11 11 11 12 12 12 12 12 12 13 13 13 13 13 13 13 13 13 13 13 13
13 13 13 13 13 13 13 12 12 12 12 12 12 12 11 11 11 11 11 11 11 11 11 11 11 11 12 13 13 13 13 13 13 13 13 13 13 13
13 13 13 12 12 12 12 12 12 12 12 12 12 11 11 11 11 11 11 11 11 11 11 11 11 11 11 11 12 12 12 12 12 12 12 12 12 12
13 13 12 12 12 12 12 12 12 12 12 11 11 11 11 11 11 11 11 11 11 10 10 10 10 10 10 10 11 11 12 11 12 12 12 12 12 12
12 12 12 12 12 12 12 12 12 11 11 11 11 11 11 10 10 10 10 10 10 10 10 10 10 10 10 10 10 10 11 11 11 11 11 11 11 11
12 12 11 11 11 11 11 11 11 11 11 11 10 10 10 10 10 10 10 10 10 10 10 10 10 10 10 10 10 10 10 9 10 10 10 10 11 10
12 11 11 11 11 11 11 10 10 10 10 10 10 10 10 10 9 9 9 9 9 9 10 9 9 9 9 9 9 9 9 9 9 9 9 10 10 10
11 11 11 11 10 10 10 10 10 10 10 10 9 9 9 9 9 9 9 9 9 9 9 9 9 9 9 9 8 8 8 8 8 8 8 8 9 10
11 11 11 10 10 10 10 9 9 9 9 9 9 9 8 8 8 8 8 8 8 8 8 7 7 7 7 8 7 7 7 7 7 7 7 7 8 9
11 11 10 10 10 10 9 9 9 9 9 8 8 8 8 8 7 7 7 7 7 7 7 6 6 6 6 6 6 6 6 6 6 6 7 7 7 8
11 11 10 10 9 9 9 9 8 8 8 8 8 7 7 7 7 6 6 6 6 6 6 6 5 5 5 5 5 6 6 5 5 5 5 5 6 7
11 10 10 9 9 9 8 8 8 8 7 7 7 7 6 6 6 5 5 5 5 5 5 5 5 4 4 4 4 4 5 5 5 5 4 4 4 4
10 10 9 9 8 8 8 8 7 7 7 6 6 6 5 5 5 5 5 4 4 4 4 4 4 4 3 3 3 3 4 4 4 5 5 4 4 3
Wind_Speed
1 2 1 1 1 1 1 2 3 1 1 2 2 2 1 1 1 2 2 4 6 8 8 9 10 10 11 12 13 15 15 16 16 17 18 19 19 19
0 1 1 1 1 1 1 1 2 3 1 1 1 1 1 1 1 1 3 4 6 7 8 9 10 11 12 12 13 14 14 15 15 16 18 18 19 19
1 1 0 1 1 1 1 2 2 2 2 2 2 1 1 2 1 1 2 3 4 7 7 9 10 11 12 12 13 13 14 14 15 16 16 17 18 19
1 1 1 1 1 1 1 1 1 1 2 0 2 2 2 1 1 1 1 2 3 6 8 9 9 10 11 12 13 13 14 15 15 15 16 17 18 18
3 3 2 2 1 0 1 1 0 1 2 2 1 1 1 2 2 2 2 2 3 4 5 6 7 9 10 11 12 12 13 14 15 15 16 17 17 17
3 3 3 4 4 3 2 1 1 1 1 1 0 1 1 2 2 2 2 2 2 3 3 4 4 6 8 9 10 11 13 13 14 14 14 15 16 17
2 3 4 5 6 5 3 3 2 2 1 1 0 1 1 2 1 1 1 3 3 1 2 2 2 3 4 7 9 10 11 12 13 13 14 14 15 16
3 3 3 4 5 5 5 5 5 4 3 2 1 1 2 1 1 1 1 2 3 2 2 3 2 3 4 5 8 10 11 11 11 12 13 14 15 16
4 3 3 3 4 3 3 4 4 4 6 5 4 3 3 3 2 1 1 2 3 3 1 3 2 3 4 6 9 10 10 10 10 11 12 13 14 15
5 5 4 3 4 5 3 2 2 2 3 3 4 4 4 4 4 3 3 2 3 3 2 2 2 3 4 4 8 8 8 8 9 10 11 12 13 14
3 4 4 4 5 6 5 3 1 2 2 2 4 3 3 3 3 2 0 0 2 3 1 1 2 3 3 3 4 5 6 7 8 9 10 11 12 12
2 2 4 4 4 5 5 5 3 2 0 1 1 2 2 2 1 2 3 2 1 2 2 1 2 2 3 3 2 4 4 6 8 9 10 10 10 6
3 2 2 4 4 5 6 5 5 3 2 1 1 2 2 2 2 1 1 2 2 2 2 1 1 1 2 3 3 3 2 3 4 5 7 10 10 7
4 3 3 4 4 4 4 4 5 4 3 2 2 1 1 2 2 2 1 0 1 2 3 1 1 1 2 3 4 3 3 3 2 3 4 7 8 9
4 5 5 4 3 3 4 5 5 4 3 2 2 0 1 1 2 2 3 2 2 3 3 2 1 2 2 2 3 3 3 3 3 4 4 4 4 4
3 3 4 4 4 4 4 3 3 3 3 3 2 1 1 2 2 2 2 2 2 3 5 6 4 1 1 3 3 3 3 3 4 5 5 4 4 4
5 3 3 3 3 3 3 3 3 3 3 2 2 2 2 2 2 2 2 2 2 2 4 4 5 4 2 2 2 3 3 3 4 5 4 5 5 4
7 4 4 4 4 4 4 3 3 3 2 3 3 3 2 2 2 2 3 3 2 2 3 4 5 4 4 3 1 2 3 3 4 5 4 4 5 5
6 5 5 5 5 5 4 4 3 2 3 3 3 3 2 2 2 2 2 2 2 2 3 3 3 3 4 5 5 3 3 5 5 4 4 4 5 7
5 6 6 6 5 5 5 4 4 3 3 3 3 3 3 2 2 2 2 2 1 2 3 3 3 2 2 4 4 5 6 4 4 5 5 5 6 8
6 6 6 6 6 5 5 5 5 4 4 3 3 3 3 3 2 2 2 3 2 2 3 3 4 6 3 2 4 5 5 7 7 6 6 6 6 5
7 7 6 6 6 6 6 5 5 4 4 4 3 3 3 3 3 2 1 1 1 2 3 4 5 4 3 3 5 6 7 7 8 11 9 8 5 5
8 8 7 7 7 6 6 6 7 5 5 4 4 3 3 2 2 1 1 1 1 2 3 4 4 3 3 4 5 6 8 8 7 6 6 10 14 16
Wind_Direction
59 61 68 34 53 77 115 137 141 113 349 318 339 331 327 221 208 203 208 215 223 231 233 233 229 229 232 233 235 236 236 234 233 232 229 228 229 230
105 83 52 36 44 56 82 101 127 146 175 291 289 302 312 300 222 234 247 252 247 247 245 242 235 234 237 238 240 242 239 237 235 237 235 232 232 232
44 108 100 87 79 59 71 82 89 128 154 303 319 339 9 5 343 329 281 264 269 263 259 251 242 239 239 241 242 243 242 238 235 237 238 237 236 235
191 140 216 136 94 71 80 80 88 137 149 196 336 353 357 324 331 334 324 306 285 274 267 260 252 246 245 245 245 246 245 242 240 240 241 241 241 240
201 189 198 152 148 153 112 96 85 99 129 146 307 332 332 346 14 2 357 338 312 295 280 270 262 255 251 250 249 247 247 246 243 243 244 243 243 243
214 209 201 186 187 182 163 159 134 99 96 109 2 339 338 337 31 11 348 337 318 317 314 302 290 275 264 259 255 252 249 247 246 245 247 248 246 245
230 232 225 213 203 190 178 178 151 129 104 102 10 354 337 354 349 327 321 319 312 315 330 315 301 283 276 270 263 258 253 251 250 249 248 249 249 248
231 250 249 236 227 213 200 187 174 165 169 170 193 225 264 251 254 302 328 358 318 314 342 301 276 270 263 263 259 258 253 251 252 253 254 252 252 252
219 229 240 226 213 208 226 216 214 206 192 179 191 219 227 225 205 237 233 232 252 271 324 290 288 276 272 273 264 262 260 258 258 261 262 259 257 256
221 216 216 231 214 191 188 196 244 263 235 201 203 222 231 227 205 204 219 260 279 277 208 254 290 281 288 287 273 263 259 262 267 269 270 269 267 263
238 215 204 212 218 189 168 177 208 291 290 226 210 227 251 243 195 158 181 340 312 304 272 225 296 307 299 292 300 290 281 281 280 278 276 276 274 271
237 223 212 204 203 180 169 172 187 229 270 30 22 358 354 354 341 187 189 191 249 293 310 320 304 335 322 309 312 319 305 294 294 289 286 284 283 275
202 216 221 195 185 178 170 177 196 184 158 125 54 21 15 9 358 5 177 180 196 253 287 310 294 302 276 302 311 306 311 310 311 300 300 296 290 271
196 205 209 194 179 172 165 169 163 140 119 108 90 51 22 354 339 349 22 80 204 234 286 281 256 268 282 291 296 312 315 310 311 306 314 312 302 287
191 192 189 182 154 139 136 137 132 125 122 118 124 131 306 321 347 4 11 13 9 8 4 2 294 277 250 262 286 304 319 326 339 334 326 319 308 305
170 168 152 132 118 113 104 101 106 129 137 136 136 90 26 34 30 22 21 12 20 352 351 359 349 314 278 273 273 293 305 312 330 327 319 313 309 305
147 125 121 124 125 109 94 92 92 98 103 103 103 88 61 53 33 24 38 45 44 353 340 340 340 336 283 269 300 306 316 319 315 321 324 318 307 304
146 147 155 154 155 153 143 126 111 115 121 119 109 103 90 75 53 36 44 57 48 6 346 340 348 358 360 349 317 313 332 320 316 317 316 310 305 305
151 162 166 168 164 159 155 148 147 141 127 119 115 108 100 86 75 53 39 37 24 2 345 346 2 16 360 330 317 338 332 319 322 321 309 296 293 300
166 169 172 170 163 159 156 151 141 130 120 117 113 106 101 95 83 63 43 30 10 357 352 353 357 349 306 289 294 306 322 315 317 314 307 299 287 287
174 171 168 164 160 156 151 146 141 136 130 124 115 107 101 97 88 68 45 21 18 357 341 324 304 313 299 320 315 309 308 314 311 302 308 311 311 310
173 170 167 162 159 155 150 144 138 134 131 124 122 115 108 106 103 82 54 21 350 324 313 310 319 335 351 328 307 303 306 310 309 311 304 295 297 302
173 168 164 161 157 152 149 147 143 141 139 136 132 126 120 113 107 97 61 13 340 331 326 324 330 334 320 306 302 303 307 312 314 315 305 302 299 292
Height
1493 1493 1493 1493 1493 1493 1493 1494 1495 1495 1495 1496 1497 1498 1499 1500 1501 1502 1504 1505 1507 1508 1510 1512 1513 1515 1517 1519 1520 1522 1524 1526 1527 1528 1530 1532 1533 1534
1493 1493 1492 1492 1492 1492 1493 1493 1494 1494 1495 1496 1496 1497 1497 1498 1499 1500 1502 1503 1504 1506 1507 1508 1510 1511 1513 1514 1516 1518 1519 1521 1522 1524 1525 1527 1528 1530
1492 1492 1492 1492 1492 1492 1492 1492 1493 1493 1494 1495 1495 1496 1496 1497 1497 1498 1499 1500 1501 1502 1503 1504 1506 1507 1508 1510 1511 1513 1514 1516 1517 1518 1520 1521 1523 1524
1492 1492 1492 1491 1491 1491 1491 1492 1492 1492 1493 1493 1494 1494 1494 1495 1496 1496 1497 1497 1498 1499 1500 1501 1502 1503 1504 1505 1506 1508 1509 1510 1512 1513 1514 1516 1517 1519
1492 1492 1492 1491 1491 1491 1490 1491 1491 1491 1492 1492 1492 1493 1493 1493 1494 1494 1494 1495 1495 1496 1496 1497 1498 1499 1500 1501 1502 1503 1504 1505 1506 1507 1508 1509 1511 1512
1492 1492 1491 1491 1490 1490 1490 1490 1490 1490 1490 1491 1491 1491 1491 1491 1492 1492 1492 1493 1493 1493 1493 1493 1494 1495 1496 1496 1497 1498 1499 1499 1500 1501 1502 1503 1504 1506
1491 1491 1491 1490 1490 1490 1490 1489 1489 1489 1489 1489 1489 1489 1490 1490 1490 1490 1490 1490 1490 1490 1490 1490 1490 1491 1491 1492 1492 1493 1494 1494 1495 1496 1496 1497 1497 1499
1490 1490 1490 1489 1489 1489 1489 1489 1488 1488 1488 1488 1488 1488 1488 1488 1488 1488 1488 1488 1487 1488 1487 1487 1487 1487 1487 1487 1488 1488 1489 1489 1490 1490 1490 1491 1491 1492
1488 1488 1488 1488 1488 1487 1487 1487 1487 1487 1487 1487 1487 1487 1486 1486 1486 1486 1486 1486 1485 1485 1484 1483 1484 1483 1484 1483 1484 1484 1484 1484 1484 1485 1485 1485 1485 1486
1486 1486 1486 1486 1486 1486 1486 1486 1486 1486 1485 1485 1485 1485 1485 1484 1484 1484 1484 1483 1483 1482 1482 1481 1480 1480 1480 1480 1480 1480 1480 1480 1479 1479 1479 1479 1479 1479
1482 1482 1483 1483 1483 1483 1484 1484 1484 1484 1484 1483 1483 1483 1483 1482 1482 1482 1481 1481 1480 1480 1479 1479 1477 1477 1476 1476 1476 1476 1475 1475 1475 1475 1474 1474 1474 1473
1479 1479 1480 1480 1480 1481 1481 1481 1481 1481 1481 1481 1481 1481 1481 1480 1480 1480 1479 1479 1478 1478 1477 1477 1476 1475 1473 1472 1472 1472 1472 1471 1470 1470 1469 1469 1468 1467
1475 1476 1476 1476 1477 1478 1478 1479 1479 1480 1479 1479 1479 1479 1479 1478 1478 1477 1477 1477 1476 1476 1476 1475 1473 1472 1471 1469 1468 1468 1467 1466 1465 1464 1464 1463 1462 1462
1471 1472 1472 1473 1474 1474 1475 1476 1476 1477 1477 1477 1477 1477 1477 1476 1476 1476 1475 1474 1474 1473 1473 1472 1471 1470 1468 1466 1465 1464 1464 1462 1461 1459 1459 1458 1457 1456
1468 1468 1469 1469 1470 1471 1472 1473 1473 1474 1474 1474 1474 1474 1474 1474 1474 1473 1473 1472 1472 1471 1470 1469 1468 1467 1466 1464 1462 1461 1459 1458 1457 1455 1454 1453 1451 1450
1464 1464 1465 1466 1467 1468 1469 1469 1470 1471 1471 1472 1472 1472 1472 1472 1471 1471 1470 1470 1469 1468 1467 1466 1465 1464 1462 1461 1459 1458 1456 1454 1453 1451 1449 1448 1447 1446
1460 1461 1461 1462 1463 1464 1465 1466 1467 1468 1468 1469 1469 1469 1469 1469 1469 1468 1467 1467 1466 1465 1464 1463 1462 1460 1459 1458 1456 1454 1453 1451 1449 1447 1445 1443 1442 1441
1456 1456 1458 1459 1460 1461 1462 1463 1464 1465 1466 1466 1466 1467 1466 1466 1466 1465 1465 1464 1463 1462 1461 1460 1458 1457 1456 1455 1454 1451 1449 1447 1445 1443 1441 1438 1436 1436
1452 1453 1454 1455 1457 1458 1459 1460 1461 1462 1463 1463 1464 1464 1464 1463 1463 1463 1462 1461 1460 1459 1458 1457 1455 1453 1452 1450 1449 1448 1446 1443 1441 1439 1437 1434 1431 1430
1447 1448 1450 1452 1453 1454 1455 1457 1458 1459 1459 1460 1460 1461 1461 1461 1460 1460 1459 1458 1457 1456 1455 1454 1452 1451 1449 1447 1445 1443 1442 1440 1437 1434 1431 1429 1426 1424
1442 1444 1446 1448 1449 1451 1452 1453 1454 1455 1456 1457 1457 1457 1458 1457 1457 1457 1456 1455 1454 1453 1451 1450 1449 1447 1445 1443 1441 1438 1437 1436 1433 1430 1426 1423 1419 1416
1437 1439 1441 1443 1445 1447 1448 1450 1451 1452 1453 1453 1454 1454 1454 1454 1454 1453 1452 1451 1450 1449 1447 1446 1444 1443 1441 1439 1435 1433 1430 1429 1427 1425 1423 1420 1416 1411
1432 1435 1437 1439 1441 1443 1444 1446 1447 1448 1449 1450 1450 1450 1450 1450 1450 1449 1448 1447 1446 1445 1443 1441 1440 1438 1436 1434 1431 1428 1425 1422 1419 1417 1416 1415 1412 1409